Other Surface Observations
Issued by NWS Los Angeles, CA

Current Version | Previous Version | Text Only | Print | Product List | Glossary On
Versions: 1 2 3 4 5 6 7
000
SXUS56 KLOX 292231
OSOLOX

OFFSHORE OIL PLATFORM HARVEST WEATHER
NATIONAL WEATHER SERVICE OXNARD CA
330 PM PDT THU OCT 29 2014

OBSERVATION FROM DRILLING RIG "HARVEST"
LOCATION 34 DEG 28 MIN N...120 DEG 41 MIN W...12 MILES W
PT CONCEPTION ANEMOMETER LOCATED 163 FEET ABOVE SEA LEVEL.
WIND SENSOR IS PARTIALLY BLOCKED BY OIL RIG STRUCTURE.

SPECI 292200Z VRB03KT 20SM FEW060 22/18 A2998 RMKS SEAS 3 TO 4 FEET

$$












































































































































































































































































































































USA.gov is the U.S. government's official web portal to all federal, state and local government web resources and services.